| time (UTC) | temp F | wind direction | speed MPH | gust MPH | rain 1hr in | rain 24hr in | rain mn in | humidity % | barometer mb |
| 20260502211827 | 77 | 360 | 4.0 | 11.0 | 0.00 | 0.08 | 0.00 | 48 | 1019.4 |
| 20260502211328 | 77 | 360 | 4.0 | 11.0 | 0.00 | 0.08 | 0.00 | 50 | 1019.5 |
| 20260502210829 | 77 | 360 | 4.0 | 11.0 | 0.00 | 0.08 | 0.00 | 50 | 1019.5 |
| 20260502210328 | 78 | 360 | 5.0 | 11.0 | 0.00 | 0.08 | 0.00 | 47 | 1019.6 |
| 20260502205828 | 77 | 360 | 4.0 | 11.0 | 0.00 | 0.08 | 0.00 | 50 | 1019.7 |
| 20260502205328 | 77 | 360 | 3.0 | 9.0 | 0.00 | 0.08 | 0.00 | 48 | 1019.8 |
| 20260502204848 | 77 | 360 | 3.0 | 9.0 | 0.00 | 0.08 | 0.00 | 55 | 1019.9 |
| 20260502204324 | 77 | 360 | 4.0 | 12.0 | 0.00 | 0.08 | 0.00 | 52 | 1019.9 |
| 20260502203824 | 77 | 360 | 5.0 | 10.0 | 0.00 | 0.08 | 0.00 | 51 | 1019.9 |
| 20260502203324 | 77 | 360 | 3.0 | 12.0 | 0.00 | 0.08 | 0.00 | 49 | 1020.0 |
| 20260502202844 | 77 | 360 | 5.0 | 12.0 | 0.00 | 0.08 | 0.00 | 50 | 1020.1 |
| 20260502202320 | 77 | 360 | 3.0 | 11.0 | 0.00 | 0.08 | 0.00 | 56 | 1020.1 |
| 20260502201840 | 76 | 360 | 4.0 | 11.0 | 0.00 | 0.08 | 0.00 | 52 | 1020.2 |
| 20260502201317 | 76 | 360 | 4.0 | 13.0 | 0.00 | 0.08 | 0.00 | 52 | 1020.3 |
| 20260502200852 | 76 | 360 | 6.0 | 13.0 | 0.00 | 0.08 | 0.00 | 52 | 1020.4 |
| 20260502200351 | 76 | 360 | 3.0 | 13.0 | 0.00 | 0.08 | 0.00 | 51 | 1020.3 |
| 20260502195830 | 76 | 360 | 5.0 | 12.0 | 0.00 | 0.12 | 0.00 | 53 | 1020.4 |
| 20260502195329 | 76 | 360 | 2.0 | 12.0 | 0.00 | 0.12 | 0.00 | 53 | 1020.5 |
| 20260502194828 | 76 | 360 | 4.0 | 11.0 | 0.00 | 0.12 | 0.00 | 51 | 1020.5 |
| 20260502194347 | 76 | 360 | 4.0 | 11.0 | 0.00 | 0.12 | 0.00 | 51 | 1020.5 |
| 20260502193825 | 76 | 360 | 4.0 | 11.0 | 0.00 | 0.12 | 0.00 | 50 | 1020.5 |
| 20260502193323 | 76 | 360 | 4.0 | 12.0 | 0.00 | 0.12 | 0.00 | 53 | 1020.5 |
| 20260502192821 | 75 | 360 | 3.0 | 13.0 | 0.00 | 0.12 | 0.00 | 54 | 1020.6 |
| 20260502192341 | 75 | 360 | 6.0 | 13.0 | 0.00 | 0.12 | 0.00 | 56 | 1020.6 |
| 20260502191839 | 75 | 360 | 4.0 | 10.0 | 0.00 | 0.12 | 0.00 | 58 | 1020.6 |
| 20260502191318 | 75 | 360 | 4.0 | 9.0 | 0.00 | 0.12 | 0.00 | 53 | 1020.7 |
| 20260502190816 | 75 | 360 | 5.0 | 9.0 | 0.00 | 0.12 | 0.00 | 53 | 1020.7 |
| 20260502190314 | 75 | 360 | 2.0 | 16.0 | 0.00 | 0.12 | 0.00 | 53 | 1020.8 |
| 20260502185815 | 75 | 360 | 6.0 | 16.0 | 0.00 | 0.20 | 0.00 | 54 | 1020.9 |
| 20260502185312 | 75 | 360 | 5.0 | 11.0 | 0.00 | 0.20 | 0.00 | 52 | 1020.9 |
| 20260502184830 | 74 | 360 | 4.0 | 10.0 | 0.00 | 0.20 | 0.00 | 59 | 1020.9 |
| 20260502184329 | 74 | 360 | 4.0 | 13.0 | 0.00 | 0.20 | 0.00 | 55 | 1020.9 |
| 20260502183830 | 74 | 360 | 4.0 | 15.0 | 0.00 | 0.20 | 0.00 | 53 | 1021.0 |
| 20260502183330 | 74 | 360 | 4.0 | 10.0 | 0.00 | 0.20 | 0.00 | 55 | 1021.1 |
| 20260502182828 | 74 | 360 | 3.0 | 10.0 | 0.00 | 0.20 | 0.00 | 57 | 1021.1 |
| 20260502182328 | 74 | 360 | 4.0 | 10.0 | 0.00 | 0.20 | 0.00 | 57 | 1021.2 |
| 20260502181826 | 74 | 360 | 2.0 | 9.0 | 0.00 | 0.20 | 0.00 | 60 | 1021.3 |
| 20260502181325 | 73 | 360 | 3.0 | 11.0 | 0.00 | 0.20 | 0.00 | 54 | 1021.4 |
| 20260502180825 | 73 | 360 | 4.0 | 10.0 | 0.00 | 0.20 | 0.00 | 61 | 1021.5 |
| 20260502180324 | 73 | 360 | 4.0 | 10.0 | 0.00 | 0.20 | 0.00 | 58 | 1021.6 |
| 20260502170330 | 70 | 360 | 3.0 | 10.0 | 0.00 | 0.29 | 0.00 | 61 | 1022.4 |
| 20260502164330 | 70 | 360 | 4.0 | 10.0 | 0.00 | 0.30 | 0.00 | 64 | 1022.5 |
| 20260502163828 | 69 | 360 | 3.0 | 11.0 | 0.00 | 0.30 | 0.00 | 66 | 1022.5 |
| 20260502163343 | 69 | 360 | 4.0 | 11.0 | 0.00 | 0.30 | 0.00 | 61 | 1022.4 |
| 20260502162821 | 69 | 360 | 2.0 | 15.0 | 0.00 | 0.30 | 0.00 | 63 | 1022.5 |
| 20260502162341 | 69 | 360 | 5.0 | 15.0 | 0.00 | 0.30 | 0.00 | 65 | 1022.5 |
| 20260502161819 | 69 | 360 | 3.0 | 12.0 | 0.00 | 0.30 | 0.00 | 67 | 1022.4 |
| 20260502161320 | 68 | 360 | 3.0 | 10.0 | 0.00 | 0.30 | 0.00 | 69 | 1022.4 |
| 20260502160818 | 68 | 360 | 3.0 | 12.0 | 0.00 | 0.30 | 0.00 | 66 | 1022.5 |
| 20260502160317 | 68 | 360 | 5.0 | 12.0 | 0.00 | 0.30 | 0.00 | 67 | 1022.4 |
| 20260502152328 | 65 | 360 | 5.0 | 8.0 | 0.00 | 0.35 | 0.00 | 74 | 1022.2 |
| 20260502151828 | 65 | 360 | 2.0 | 10.0 | 0.00 | 0.35 | 0.00 | 77 | 1022.2 |
| 20260502151327 | 65 | 360 | 4.0 | 10.0 | 0.00 | 0.35 | 0.00 | 74 | 1022.2 |
| 20260502150824 | 64 | 360 | 2.0 | 9.0 | 0.00 | 0.35 | 0.00 | 77 | 1022.2 |
| 20260502150324 | 64 | 360 | 4.0 | 9.0 | 0.00 | 0.35 | 0.00 | 79 | 1022.2 |
| 20260502130328 | 53 | 360 | 1.0 | 6.0 | 0.00 | 0.51 | 0.00 | 99 | 1021.1 |
| 20260502123346 | 50 | 360 | 1.0 | 2.0 | 0.00 | 0.62 | 0.00 | 98 | 1020.6 |
| 20260502122844 | 50 | 360 | 0.0 | 2.0 | 0.00 | 0.62 | 0.00 | 98 | 1020.4 |
| 20260502122321 | 50 | 360 | 0.0 | 1.0 | 0.00 | 0.62 | 0.00 | 97 | 1020.3 |
| 20260502121819 | 50 | 360 | 0.0 | 2.0 | 0.00 | 0.62 | 0.00 | 97 | 1020.2 |
| 20260502121338 | 50 | 360 | 1.0 | 2.0 | 0.00 | 0.62 | 0.00 | 97 | 1020.2 |
| 20260502120836 | 50 | 360 | 0.0 | 1.0 | 0.00 | 0.62 | 0.00 | 97 | 1020.2 |
| 20260502120313 | 50 | 360 | 0.0 | 1.0 | 0.00 | 0.62 | 0.00 | 97 | 1020.1 |
| 20260502115813 | 50 | 360 | 0.0 | 2.0 | 0.00 | 0.85 | 0.00 | 98 | 1020.1 |
| 20260502115313 | 50 | 360 | 0.0 | 3.0 | 0.00 | 0.85 | 0.00 | 97 | 1020.1 |
| 20260502114848 | 50 | 360 | 1.0 | 3.0 | 0.00 | 0.85 | 0.00 | 98 | 1020.0 |
| 20260502114328 | 50 | 360 | 0.0 | 5.0 | 0.00 | 0.85 | 0.00 | 98 | 1019.8 |
| 20260502113825 | 50 | 360 | 2.0 | 5.0 | 0.00 | 0.85 | 0.00 | 98 | 1019.8 |
| 20260502113325 | 50 | 360 | 1.0 | 4.0 | 0.00 | 0.85 | 0.00 | 98 | 1019.8 |
| 20260502112823 | 50 | 360 | 0.0 | 3.0 | 0.00 | 0.85 | 0.00 | 97 | 1019.7 |
| 20260502112319 | 51 | 360 | 2.0 | 3.0 | 0.00 | 0.85 | 0.00 | 98 | 1019.7 |
| 20260502111842 | 51 | 360 | 1.0 | 4.0 | 0.00 | 0.85 | 0.00 | 97 | 1019.6 |
| 20260502111319 | 51 | 360 | 1.0 | 4.0 | 0.00 | 0.85 | 0.00 | 98 | 1019.5 |
| 20260502110819 | 51 | 360 | 0.0 | 3.0 | 0.00 | 0.85 | 0.00 | 98 | 1019.5 |
| 20260502110318 | 51 | 360 | 1.0 | 4.0 | 0.00 | 0.85 | 0.00 | 98 | 1019.5 |
| 20260502105818 | 51 | 360 | 1.0 | 4.0 | 0.00 | 1.03 | 0.00 | 98 | 1019.4 |
| 20260502105316 | 51 | 360 | 1.0 | 5.0 | 0.00 | 1.03 | 0.00 | 98 | 1019.4 |
| 20260502104836 | 50 | 360 | 1.0 | 3.0 | 0.00 | 1.03 | 0.00 | 98 | 1019.3 |
| 20260502104314 | 50 | 360 | 1.0 | 3.0 | 0.00 | 1.03 | 0.00 | 97 | 1019.2 |
| 20260502103813 | 50 | 360 | 0.0 | 2.0 | 0.00 | 1.03 | 0.00 | 97 | 1019.2 |
| 20260502103314 | 50 | 360 | 0.0 | 2.0 | 0.00 | 1.03 | 0.00 | 97 | 1019.1 |
| 20260502102832 | 51 | 360 | 0.0 | 2.0 | 0.00 | 1.03 | 0.00 | 97 | 1019.0 |
| 20260502102330 | 51 | 360 | 1.0 | 2.0 | 0.00 | 1.03 | 0.00 | 97 | 1018.9 |
| 20260502101830 | 51 | 360 | 0.0 | 2.0 | 0.00 | 1.03 | 0.00 | 97 | 1018.9 |
| 20260502101328 | 51 | 360 | 0.0 | 2.0 | 0.00 | 1.03 | 0.00 | 97 | 1018.9 |
| 20260502100827 | 51 | 360 | 0.0 | 2.0 | 0.00 | 1.03 | 0.00 | 97 | 1018.7 |
| 20260502100324 | 51 | 360 | 0.0 | 3.0 | 0.00 | 1.03 | 0.00 | 97 | 1018.5 |
| 20260502091321 | 52 | 360 | 1.0 | 6.0 | 0.00 | 1.13 | 0.00 | 97 | 1017.8 |
| 20260502090841 | 52 | 360 | 2.0 | 5.0 | 0.00 | 1.13 | 0.00 | 97 | 1017.8 |
| 20260502090340 | 52 | 360 | 1.0 | 6.0 | 0.00 | 1.13 | 0.00 | 97 | 1017.7 |
| 20260502071334 | 52 | 360 | 0.0 | 3.0 | 0.00 | 1.49 | 0.00 | 96 | 1017.5 |
| 20260502070814 | 52 | 360 | 0.0 | 2.0 | 0.00 | 1.49 | 0.00 | 96 | 1017.5 |
| 20260502070313 | 52 | 360 | 0.0 | 2.0 | 0.00 | 1.49 | 0.00 | 96 | 1017.5 |
| 20260502065831 | 53 | 360 | 0.0 | 3.0 | 0.00 | 1.74 | 0.00 | 95 | 1017.5 |
| 20260502065351 | 53 | 360 | 0.0 | 3.0 | 0.00 | 1.74 | 0.00 | 95 | 1017.3 |
| 20260502064830 | 53 | 360 | 1.0 | 6.0 | 0.00 | 1.74 | 0.00 | 95 | 1017.4 |
| 20260502064330 | 53 | 360 | 1.0 | 6.0 | 0.00 | 1.74 | 0.00 | 95 | 1017.4 |
| 20260502063828 | 53 | 360 | 1.0 | 6.0 | 0.00 | 1.74 | 0.00 | 95 | 1017.4 |
| 20260502063326 | 53 | 360 | 2.0 | 6.0 | 0.00 | 1.74 | 0.00 | 95 | 1017.5 |
| 20260502062853 | 53 | 360 | 3.0 | 6.0 | 0.00 | 1.74 | 0.00 | 95 | 1017.6 |
| 20260502062330 | 53 | 360 | 2.0 | 6.0 | 0.00 | 1.74 | 0.00 | 95 | 1017.5 |
| 20260502061829 | 53 | 360 | 2.0 | 8.0 | 0.00 | 1.74 | 0.00 | 95 | 1017.5 |
| 20260502061329 | 53 | 360 | 2.0 | 8.0 | 0.00 | 1.74 | 0.00 | 94 | 1017.5 |
| 20260502060829 | 53 | 360 | 2.0 | 8.0 | 0.00 | 1.74 | 0.00 | 94 | 1017.5 |
| 20260502060348 | 53 | 360 | 2.0 | 5.0 | 0.00 | 1.74 | 0.00 | 94 | 1017.5 |
| 20260502055849 | 53 | 360 | 1.0 | 5.0 | 0.00 | 1.74 | 0.00 | 94 | 1017.6 |
| 20260502055342 | 53 | 360 | 2.0 | 8.0 | 0.00 | 1.74 | 0.00 | 93 | 1017.5 |
| 20260502054838 | 53 | 360 | 2.0 | 8.0 | 0.00 | 1.74 | 0.00 | 93 | 1017.4 |
| 20260502054318 | 53 | 360 | 1.0 | 5.0 | 0.00 | 1.74 | 0.00 | 93 | 1017.4 |
| 20260502053819 | 53 | 360 | 2.0 | 5.0 | 0.00 | 1.74 | 0.00 | 92 | 1017.5 |
| 20260502053319 | 53 | 360 | 1.0 | 6.0 | 0.00 | 1.74 | 0.00 | 92 | 1017.5 |
| 20260502052836 | 53 | 360 | 2.0 | 8.0 | 0.00 | 1.74 | 0.00 | 92 | 1017.5 |
| 20260502052315 | 53 | 360 | 3.0 | 8.0 | 0.00 | 1.74 | 0.00 | 92 | 1017.4 |
| 20260502051833 | 54 | 360 | 2.0 | 6.0 | 0.00 | 1.74 | 0.00 | 92 | 1017.5 |
| 20260502051352 | 54 | 360 | 2.0 | 9.0 | 0.00 | 1.74 | 0.00 | 92 | 1017.6 |
| 20260502050851 | 54 | 360 | 3.0 | 14.0 | 0.00 | 1.74 | 0.00 | 91 | 1017.5 |
| 20260502050338 | 54 | 360 | 4.0 | 13.0 | 0.00 | 1.74 | 0.00 | 91 | 1017.4 |
| 20260502045830 | 54 | 360 | 5.0 | 13.0 | 0.00 | 1.75 | 1.74 | 91 | 1017.5 |
| 20260502045331 | 54 | 360 | 2.0 | 12.0 | 0.00 | 1.75 | 1.74 | 92 | 1017.6 |
| 20260502044831 | 54 | 360 | 3.0 | 12.0 | 0.00 | 1.75 | 1.74 | 92 | 1017.5 |
| 20260502044329 | 54 | 360 | 4.0 | 14.0 | 0.00 | 1.75 | 1.74 | 92 | 1017.4 |
| 20260502043846 | 55 | 360 | 4.0 | 14.0 | 0.00 | 1.75 | 1.74 | 92 | 1017.4 |
| 20260502043345 | 55 | 360 | 5.0 | 10.0 | 0.00 | 1.75 | 1.74 | 93 | 1017.3 |
| 20260502042823 | 55 | 360 | 4.0 | 10.0 | 0.00 | 1.75 | 1.74 | 93 | 1017.2 |
| 20260502042342 | 55 | 360 | 3.0 | 13.0 | 0.00 | 1.75 | 1.74 | 94 | 1017.2 |
| 20260502041818 | 55 | 360 | 4.0 | 15.0 | 0.00 | 1.75 | 1.74 | 94 | 1017.2 |
| 20260502041333 | 55 | 360 | 6.0 | 15.0 | 0.00 | 1.75 | 1.74 | 94 | 1017.2 |
| 20260502040813 | 55 | 360 | 4.0 | 12.0 | 0.00 | 1.75 | 1.74 | 94 | 1017.1 |
| 20260502040352 | 56 | 360 | 4.0 | 14.0 | 0.00 | 1.75 | 1.74 | 95 | 1017.1 |
| 20260502035831 | 56 | 360 | 6.0 | 14.0 | 0.00 | 1.75 | 1.74 | 95 | 1017.0 |
| 20260502035329 | 56 | 360 | 4.0 | 13.0 | 0.00 | 1.75 | 1.74 | 95 | 1017.0 |
| 20260502034828 | 56 | 360 | 4.0 | 11.0 | 0.00 | 1.75 | 1.74 | 95 | 1016.9 |
| 20260502034326 | 56 | 360 | 5.0 | 13.0 | 0.00 | 1.75 | 1.74 | 96 | 1016.9 |
| 20260502033826 | 56 | 360 | 5.0 | 16.0 | 0.00 | 1.75 | 1.74 | 96 | 1016.9 |
| 20260502033325 | 56 | 360 | 4.0 | 15.0 | 0.00 | 1.75 | 1.74 | 96 | 1016.8 |
| 20260502032826 | 56 | 360 | 4.0 | 12.0 | 0.00 | 1.75 | 1.74 | 96 | 1016.7 |
| 20260502032325 | 56 | 360 | 5.0 | 13.0 | 0.00 | 1.75 | 1.74 | 96 | 1016.7 |
| 20260502031825 | 56 | 360 | 4.0 | 13.0 | 0.00 | 1.75 | 1.74 | 96 | 1016.7 |
| 20260502031344 | 56 | 360 | 4.0 | 11.0 | 0.00 | 1.75 | 1.74 | 97 | 1016.7 |
| 20260502030837 | 56 | 360 | 5.0 | 9.0 | 0.00 | 1.75 | 1.74 | 97 | 1016.6 |
| 20260502030316 | 56 | 360 | 4.0 | 13.0 | 0.00 | 1.75 | 1.74 | 96 | 1016.5 |
| 20260502025815 | 56 | 360 | 3.0 | 13.0 | 0.00 | 1.75 | 1.74 | 97 | 1016.5 |
| 20260502025315 | 56 | 360 | 6.0 | 13.0 | 0.00 | 1.75 | 1.74 | 97 | 1016.5 |
| 20260502024833 | 56 | 360 | 4.0 | 12.0 | 0.00 | 1.75 | 1.74 | 98 | 1016.4 |
| 20260502024331 | 56 | 360 | 4.0 | 12.0 | 0.00 | 1.75 | 1.74 | 98 | 1016.3 |
| 20260502023830 | 57 | 360 | 4.0 | 11.0 | 0.00 | 1.75 | 1.74 | 98 | 1016.2 |
| 20260502023330 | 57 | 360 | 3.0 | 11.0 | 0.00 | 1.75 | 1.74 | 98 | 1016.1 |
| 20260502022830 | 57 | 360 | 3.0 | 9.0 | 0.00 | 1.75 | 1.74 | 98 | 1016.0 |
| 20260502022329 | 57 | 360 | 4.0 | 10.0 | 0.00 | 1.75 | 1.74 | 98 | 1015.9 |
| 20260502021827 | 57 | 360 | 4.0 | 10.0 | 0.00 | 1.75 | 1.74 | 98 | 1015.8 |
| 20260502021325 | 57 | 360 | 2.0 | 9.0 | 0.00 | 1.75 | 1.74 | 98 | 1015.8 |
| 20260502020824 | 57 | 360 | 2.0 | 9.0 | 0.00 | 1.75 | 1.74 | 98 | 1015.8 |
| 20260502020325 | 57 | 360 | 4.0 | 9.0 | 0.00 | 1.75 | 1.74 | 98 | 1015.7 |
| 20260502015822 | 57 | 360 | 3.0 | 8.0 | 0.00 | 1.75 | 1.74 | 98 | 1015.6 |
| 20260502015321 | 57 | 360 | 2.0 | 10.0 | 0.00 | 1.75 | 1.74 | 98 | 1015.5 |
| 20260502014819 | 57 | 360 | 2.0 | 10.0 | 0.00 | 1.75 | 1.74 | 98 | 1015.4 |
| 20260502014318 | 56 | 360 | 3.0 | 10.0 | 0.00 | 1.75 | 1.74 | 97 | 1015.2 |
| 20260502013816 | 56 | 360 | 3.0 | 10.0 | 0.00 | 1.75 | 1.74 | 97 | 1015.1 |
| 20260502013315 | 56 | 360 | 3.0 | 9.0 | 0.00 | 1.75 | 1.74 | 97 | 1015.1 |
| 20260502012813 | 56 | 360 | 4.0 | 9.0 | 0.00 | 1.75 | 1.74 | 97 | 1015.1 |
| 20260502012331 | 56 | 360 | 4.0 | 10.0 | 0.00 | 1.75 | 1.74 | 97 | 1015.0 |
| 20260502011830 | 56 | 360 | 4.0 | 11.0 | 0.00 | 1.75 | 1.74 | 97 | 1015.0 |
| 20260502011348 | 56 | 360 | 3.0 | 11.0 | 0.00 | 1.75 | 1.74 | 97 | 1014.9 |
| 20260502010821 | 56 | 360 | 5.0 | 13.0 | 0.00 | 1.75 | 1.74 | 97 | 1014.8 |
| 20260502010320 | 56 | 360 | 5.0 | 13.0 | 0.00 | 1.75 | 1.74 | 97 | 1014.8 |
| 20260502005820 | 56 | 360 | 5.0 | 13.0 | 0.00 | 1.75 | 1.74 | 97 | 1014.6 |
| 20260502005320 | 56 | 360 | 4.0 | 12.0 | 0.00 | 1.75 | 1.74 | 97 | 1014.5 |
| 20260502004819 | 56 | 360 | 4.0 | 17.0 | 0.00 | 1.75 | 1.74 | 97 | 1014.5 |
| 20260502004318 | 56 | 360 | 4.0 | 17.0 | 0.00 | 1.75 | 1.74 | 97 | 1014.4 |
| 20260502003818 | 56 | 360 | 2.0 | 20.0 | 0.00 | 1.75 | 1.74 | 97 | 1014.0 |
| 20260502003317 | 56 | 360 | 7.0 | 20.0 | 0.00 | 1.75 | 1.74 | 97 | 1013.7 |
| 20260502002815 | 56 | 360 | 7.0 | 16.0 | 0.00 | 1.75 | 1.74 | 97 | 1013.6 |
| 20260502002316 | 56 | 360 | 4.0 | 19.0 | 0.00 | 1.75 | 1.74 | 97 | 1013.8 |
| 20260502001816 | 56 | 360 | 8.0 | 19.0 | 0.00 | 1.75 | 1.74 | 97 | 1013.8 |
| 20260502001317 | 57 | 360 | 7.0 | 16.0 | 0.00 | 1.75 | 1.74 | 97 | 1013.9 |
| 20260502000815 | 57 | 360 | 5.0 | 15.0 | 0.00 | 1.75 | 1.74 | 97 | 1013.8 |
| 20260502000314 | 57 | 360 | 6.0 | 17.0 | 0.00 | 1.75 | 1.74 | 97 | 1013.7 |
| 20260501235832 | 57 | 360 | 6.0 | 18.0 | 0.00 | 1.75 | 1.74 | 98 | 1013.7 |
| 20260501235331 | 57 | 360 | 6.0 | 18.0 | 0.00 | 1.75 | 1.74 | 98 | 1013.7 |
| 20260501234830 | 57 | 360 | 5.0 | 17.0 | 0.00 | 1.75 | 1.74 | 98 | 1013.7 |
| 20260501234329 | 57 | 360 | 7.0 | 17.0 | 0.00 | 1.75 | 1.74 | 98 | 1013.7 |
| 20260501233828 | 57 | 360 | 4.0 | 15.0 | 0.00 | 1.75 | 1.74 | 98 | 1013.7 |
| 20260501233326 | 58 | 360 | 8.0 | 18.0 | 0.00 | 1.75 | 1.74 | 98 | 1013.7 |
| 20260501232826 | 58 | 360 | 6.0 | 15.0 | 0.00 | 1.75 | 1.74 | 98 | 1013.6 |
| 20260501232346 | 58 | 360 | 4.0 | 13.0 | 0.00 | 1.75 | 1.74 | 98 | 1013.4 |
| 20260501231824 | 58 | 360 | 4.0 | 14.0 | 0.01 | 1.75 | 1.74 | 98 | 1013.5 |
| 20260501231325 | 58 | 360 | 8.0 | 14.0 | 0.01 | 1.75 | 1.74 | 98 | 1013.5 |
| 20260501230825 | 59 | 360 | 4.0 | 11.0 | 0.01 | 1.75 | 1.74 | 98 | 1013.4 |
| 20260501230324 | 59 | 360 | 4.0 | 15.0 | 0.02 | 1.75 | 1.74 | 98 | 1013.2 |
| 20260501225817 | 58 | 360 | 6.0 | 13.0 | 0.03 | 1.75 | 1.74 | 98 | 1013.0 |
| 20260501225338 | 59 | 360 | 7.0 | 13.0 | 0.03 | 1.75 | 1.74 | 98 | 1012.7 |
| 20260501224818 | 59 | 360 | 5.0 | 13.0 | 0.03 | 1.75 | 1.74 | 98 | 1012.6 |
| 20260501224317 | 59 | 360 | 7.0 | 21.0 | 0.03 | 1.75 | 1.74 | 98 | 1012.8 |
| 20260501223817 | 59 | 360 | 7.0 | 21.0 | 0.04 | 1.75 | 1.74 | 98 | 1012.8 |
| 20260501223315 | 59 | 360 | 6.0 | 16.0 | 0.05 | 1.75 | 1.74 | 98 | 1012.4 |
| 20260501222814 | 59 | 360 | 5.0 | 14.0 | 0.06 | 1.75 | 1.74 | 98 | 1012.6 |
| 20260501222313 | 59 | 360 | 4.0 | 14.0 | 0.08 | 1.75 | 1.74 | 98 | 1012.4 |
| 20260501221813 | 59 | 360 | 5.0 | 15.0 | 0.07 | 1.74 | 1.73 | 98 | 1012.3 |
| 20260501221314 | 59 | 360 | 5.0 | 15.0 | 0.07 | 1.74 | 1.73 | 98 | 1012.4 |
| 20260501220832 | 59 | 360 | 5.0 | 11.0 | 0.07 | 1.74 | 1.73 | 98 | 1012.7 |
| 20260501220331 | 59 | 360 | 3.0 | 16.0 | 0.06 | 1.73 | 1.72 | 98 | 1012.5 |
| 20260501215830 | 59 | 360 | 4.0 | 14.0 | 0.05 | 1.72 | 1.71 | 98 | 1012.4 |
| 20260501215330 | 60 | 360 | 5.0 | 14.0 | 0.05 | 1.72 | 1.71 | 98 | 1012.2 |
| 20260501214849 | 60 | 360 | 3.0 | 13.0 | 0.05 | 1.72 | 1.71 | 98 | 1012.0 |
| 20260501214327 | 60 | 360 | 6.0 | 18.0 | 0.05 | 1.72 | 1.71 | 98 | 1012.1 |
| 20260501213825 | 60 | 360 | 5.0 | 18.0 | 0.04 | 1.71 | 1.70 | 98 | 1012.0 |
| 20260501213325 | 60 | 360 | 5.0 | 14.0 | 0.03 | 1.70 | 1.69 | 98 | 1011.6 |
| 20260501212826 | 60 | 360 | 3.0 | 12.0 | 0.02 | 1.69 | 1.68 | 98 | 1012.1 |
| 20260501212313 | 60 | 360 | 6.0 | 16.0 | 0.00 | 1.67 | 1.66 | 98 | 1011.8 |